Time,TemperatureF,DewpointF,PressureIn,WindDirection,WindDirectionDegrees,WindSpeedMPH,WindSpeedGustMPH,Humidity,HourlyPrecipIn,Conditions,Clouds,dailyrainin,SoftwareType,DateUTC
2013-04-04 00:01:00,34.7,20.2,30.05,NW,323,0.0,12.0,55,0.00,,---,0.39,VWS V14.01,2013-04-04 06:01:00,
2013-04-04 01:01:00,33.1,20.4,30.05,NW,323,3.0,10.0,59,0.00,,---,0.00,VWS V14.01,2013-04-04 07:01:00,
2013-04-04 01:11:00,32.4,20.5,30.03,NW,323,0.0,3.0,61,0.00,,---,0.00,VWS V14.01,2013-04-04 07:11:00,
2013-04-04 01:21:00,33.0,20.2,30.03,NW,323,0.0,0.0,59,0.00,,---,0.00,VWS V14.01,2013-04-04 07:21:00,
2013-04-04 01:51:00,32.3,20.4,30.03,NNW,336,7.0,11.0,61,0.00,,---,0.00,VWS V14.01,2013-04-04 07:51:00,
2013-04-04 02:11:00,31.0,20.6,30.01,NNW,342,0.0,8.0,65,0.00,,---,0.00,VWS V14.01,2013-04-04 08:11:00,
2013-04-04 02:21:00,31.0,20.6,30.01,NNW,342,0.0,9.0,65,0.00,,---,0.00,VWS V14.01,2013-04-04 08:21:00,
2013-04-04 02:41:00,30.4,20.8,30.03,NNW,342,0.0,7.0,67,0.00,,---,0.00,VWS V14.01,2013-04-04 08:41:00,
2013-04-04 02:51:00,30.5,20.9,30.01,NNW,342,0.0,5.0,67,0.00,,---,0.00,VWS V14.01,2013-04-04 08:51:00,
2013-04-04 03:01:00,30.5,20.9,30.01,NNW,342,0.0,0.0,67,0.00,,---,0.00,VWS V14.01,2013-04-04 09:01:00,
2013-04-04 03:21:00,30.0,21.1,30.02,NNW,342,0.0,0.0,69,0.00,,---,0.00,VWS V14.01,2013-04-04 09:21:00,
2013-04-04 03:31:00,30.0,21.1,30.02,NNW,342,0.0,0.0,69,0.00,,---,0.00,VWS V14.01,2013-04-04 09:31:00,
2013-04-04 03:51:00,29.6,21.0,30.02,NNW,342,0.0,9.0,70,0.00,,---,0.00,VWS V14.01,2013-04-04 09:51:00,
2013-04-04 04:01:00,30.2,20.9,30.02,NNW,342,6.0,10.0,68,0.00,,---,0.00,VWS V14.01,2013-04-04 10:01:00,
2013-04-04 04:21:00,28.9,20.4,30.05,NNW,342,0.0,0.0,70,0.00,,---,0.00,VWS V14.01,2013-04-04 10:21:00,
2013-04-04 04:31:00,29.4,20.8,30.02,NNW,342,0.0,6.0,70,0.00,,---,0.00,VWS V14.01,2013-04-04 10:31:00,
2013-04-04 04:41:00,29.7,20.8,30.03,NNW,342,0.0,0.0,69,0.00,,---,0.00,VWS V14.01,2013-04-04 10:41:00,
2013-04-04 04:51:00,30.1,20.8,30.03,NNW,342,0.0,9.0,68,0.00,,---,0.00,VWS V14.01,2013-04-04 10:51:00,
2013-04-04 05:01:00,30.8,20.4,30.03,NNW,341,0.0,11.0,65,0.00,,---,0.00,VWS V14.01,2013-04-04 11:01:00,
2013-04-04 05:21:00,30.2,20.2,30.03,NNW,341,6.0,7.0,66,0.00,,---,0.00,VWS V14.01,2013-04-04 11:21:00,
2013-04-04 05:41:00,29.7,20.1,30.03,NNW,338,10.0,14.0,67,0.00,,---,0.00,VWS V14.01,2013-04-04 11:41:00,
2013-04-04 06:01:00,30.1,20.1,30.03,NNW,343,9.0,12.0,66,0.00,,---,0.00,VWS V14.01,2013-04-04 12:01:00,
2013-04-04 06:11:00,29.8,19.8,30.09,NNW,342,0.0,9.0,66,0.00,,---,0.00,VWS V14.01,2013-04-04 12:11:00,
2013-04-04 06:41:00,28.2,20.0,30.11,NNW,343,0.0,0.0,71,0.00,,---,0.00,VWS V14.01,2013-04-04 12:41:00,
2013-04-04 06:51:00,30.0,20.4,30.09,NNW,341,3.0,11.0,67,0.00,,---,0.00,VWS V14.01,2013-04-04 12:51:00,
2013-04-04 07:01:00,30.9,20.5,30.07,NNW,341,10.0,11.0,65,0.00,,---,0.00,VWS V14.01,2013-04-04 13:01:00,
2013-04-04 07:31:00,32.8,21.6,30.09,NNW,344,7.0,10.0,63,0.00,,---,0.00,VWS V14.01,2013-04-04 13:31:00,
2013-04-04 07:41:00,32.8,21.6,30.09,North,355,11.0,12.0,63,0.00,,---,0.00,VWS V14.01,2013-04-04 13:41:00,
2013-04-04 08:01:00,34.2,22.2,30.10,North,355,11.0,14.0,61,0.00,,---,0.00,VWS V14.01,2013-04-04 14:01:00,
2013-04-04 08:31:00,37.8,22.7,30.06,North,355,10.0,17.0,54,0.00,,---,0.00,VWS V14.01,2013-04-04 14:31:00,
2013-04-04 08:41:00,38.7,23.5,30.03,North,355,13.0,15.0,54,0.00,,---,0.00,VWS V14.01,2013-04-04 14:41:00,
2013-04-04 09:01:00,41.1,22.9,30.02,NNW,342,0.0,19.0,48,0.00,,---,0.00,VWS V14.01,2013-04-04 15:01:00,
2013-04-04 09:11:00,40.8,23.6,30.04,North,360,4.0,14.0,50,0.00,,---,0.00,VWS V14.01,2013-04-04 15:11:00,
2013-04-04 09:21:00,41.4,23.7,30.04,North,10,6.0,12.0,49,0.00,,---,0.00,VWS V14.01,2013-04-04 15:21:00,
2013-04-04 09:41:00,43.5,24.1,30.02,NNE,13,0.0,9.0,46,0.00,,---,0.00,VWS V14.01,2013-04-04 15:41:00,
2013-04-04 09:51:00,43.2,24.9,30.01,NE,45,1.0,6.0,48,0.00,,---,0.00,VWS V14.01,2013-04-04 15:51:00,
2013-04-04 10:01:00,43.1,25.3,30.01,SE,126,5.0,7.0,49,0.00,,---,0.00,VWS V14.01,2013-04-04 16:01:00,
2013-04-04 10:11:00,42.7,25.4,30.01,SE,141,5.0,7.0,50,0.00,,---,0.00,VWS V14.01,2013-04-04 16:11:00,
2013-04-04 10:31:00,44.5,26.0,30.01,SE,142,2.0,7.0,48,0.00,,---,0.00,VWS V14.01,2013-04-04 16:31:00,
2013-04-04 11:01:00,46.4,25.7,30.00,SE,143,0.0,6.0,44,0.00,,---,0.00,VWS V14.01,2013-04-04 17:01:00,
2013-04-04 11:21:00,47.9,27.0,29.99,SSE,162,3.0,10.0,44,0.00,,---,0.00,VWS V14.01,2013-04-04 17:21:00,
2013-04-04 11:31:00,48.3,25.1,29.99,SSE,163,0.0,8.0,40,0.00,,---,0.00,VWS V14.01,2013-04-04 17:31:00,
2013-04-04 11:41:00,48.5,25.9,29.99,SSE,163,0.0,6.0,41,0.00,,---,0.00,VWS V14.01,2013-04-04 17:41:00,
2013-04-04 11:51:00,49.6,26.9,29.97,SSE,164,6.0,7.0,41,0.00,,---,0.00,VWS V14.01,2013-04-04 17:51:00,
2013-04-04 12:01:00,50.0,25.4,29.98,SSE,165,0.0,7.0,38,0.00,,---,0.00,VWS V14.01,2013-04-04 18:01:00,
2013-04-04 12:11:00,50.4,24.5,29.98,South,171,0.0,4.0,36,0.00,,---,0.00,VWS V14.01,2013-04-04 18:11:00,
2013-04-04 12:41:00,52.1,22.4,29.94,SSE,167,0.0,4.0,31,0.00,,---,0.00,VWS V14.01,2013-04-04 18:41:00,
2013-04-04 12:51:00,52.8,25.9,29.92,SSE,148,6.0,6.0,35,0.00,,---,0.00,VWS V14.01,2013-04-04 18:51:00,
2013-04-04 13:31:00,54.4,18.4,29.91,WNW,295,5.0,11.0,24,0.00,,---,0.00,VWS V14.01,2013-04-04 19:31:00,
2013-04-04 13:41:00,55.0,23.4,29.90,West,267,4.0,15.0,29,0.00,,---,0.00,VWS V14.01,2013-04-04 19:41:00,
2013-04-04 14:01:00,55.2,23.5,29.89,WNW,296,7.0,16.0,29,0.00,,---,0.00,VWS V14.01,2013-04-04 20:01:00,
2013-04-04 14:21:00,55.6,23.9,29.88,West,281,2.0,12.0,29,0.00,,---,0.00,VWS V14.01,2013-04-04 20:21:00,
2013-04-04 14:31:00,56.1,22.6,29.88,West,279,15.0,16.0,27,0.00,,---,0.00,VWS V14.01,2013-04-04 20:31:00,
2013-04-04 14:41:00,55.9,21.5,29.87,WNW,287,11.0,17.0,26,0.00,,---,0.00,VWS V14.01,2013-04-04 20:41:00,
2013-04-04 14:51:00,55.9,19.6,29.87,WNW,300,3.0,13.0,24,0.00,,---,0.00,VWS V14.01,2013-04-04 20:51:00,
2013-04-04 15:01:00,56.6,22.1,29.86,WNW,284,3.0,14.0,26,0.00,,---,0.00,VWS V14.01,2013-04-04 21:01:00,
2013-04-04 15:11:00,57.1,22.6,29.86,WNW,290,11.0,20.0,26,0.00,,---,0.00,VWS V14.01,2013-04-04 21:11:00,
2013-04-04 15:21:00,57.3,21.8,29.86,WNW,287,12.0,12.0,25,0.00,,---,0.00,VWS V14.01,2013-04-04 21:21:00,
2013-04-04 15:31:00,57.5,22.9,29.85,WNW,284,10.0,17.0,26,0.00,,---,0.00,VWS V14.01,2013-04-04 21:31:00,
2013-04-04 15:51:00,57.5,22.0,29.85,WSW,249,16.0,19.0,25,0.00,,---,0.00,VWS V14.01,2013-04-04 21:51:00,
2013-04-04 16:21:00,57.6,20.1,29.83,West,277,13.0,18.0,23,0.00,,---,0.00,VWS V14.01,2013-04-04 22:21:00,
2013-04-04 16:41:00,56.7,18.3,29.84,WNW,289,11.0,18.0,22,0.00,,---,0.00,VWS V14.01,2013-04-04 22:41:00,
2013-04-04 17:01:00,57.0,19.6,29.84,WNW,298,10.0,16.0,23,0.00,,---,0.00,VWS V14.01,2013-04-04 23:01:00,
2013-04-04 17:21:00,56.2,19.9,29.86,West,273,11.0,18.0,24,0.00,,---,0.00,VWS V14.01,2013-04-04 23:21:00,
2013-04-04 17:41:00,55.5,18.3,29.86,WNW,287,1.0,17.0,23,0.00,,---,0.00,VWS V14.01,2013-04-04 23:41:00,
2013-04-04 17:51:00,55.3,20.1,29.88,WNW,286,9.0,13.0,25,0.00,,---,0.00,VWS V14.01,2013-04-04 23:51:00,
2013-04-04 18:11:00,54.8,20.6,29.86,West,275,4.0,10.0,26,0.00,,---,0.00,VWS V14.01,2013-04-05 00:11:00,
2013-04-04 18:21:00,54.8,20.6,29.86,West,275,0.0,4.0,26,0.00,,---,0.00,VWS V14.01,2013-04-05 00:21:00,
2013-04-04 18:41:00,54.1,22.6,29.88,West,275,0.0,7.0,29,0.00,,---,0.00,VWS V14.01,2013-04-05 00:41:00,
2013-04-04 18:51:00,53.5,21.2,29.88,West,275,0.0,6.0,28,0.00,,---,0.00,VWS V14.01,2013-04-05 00:51:00,
2013-04-04 19:11:00,52.3,25.5,29.86,West,275,0.0,2.0,35,0.00,,---,0.00,VWS V14.01,2013-04-05 01:11:00,
2013-04-04 19:21:00,51.4,21.0,29.88,West,275,0.0,1.0,30,0.00,,---,0.00,VWS V14.01,2013-04-05 01:21:00,
2013-04-04 19:41:00,49.7,25.1,29.87,West,275,0.0,1.0,38,0.00,,---,0.00,VWS V14.01,2013-04-05 01:41:00,
2013-04-04 19:51:00,48.7,22.3,29.89,West,275,3.0,9.0,35,0.00,,---,0.00,VWS V14.01,2013-04-05 01:51:00,
2013-04-04 20:01:00,49.3,22.8,29.90,West,275,5.0,9.0,35,0.00,,---,0.00,VWS V14.01,2013-04-05 02:01:00,
2013-04-04 20:11:00,49.4,23.6,29.83,West,275,0.0,10.0,36,0.00,,---,0.00,VWS V14.01,2013-04-05 02:11:00,
2013-04-04 20:21:00,48.9,21.8,29.83,West,275,6.0,10.0,34,0.00,,---,0.00,VWS V14.01,2013-04-05 02:21:00,
2013-04-04 20:31:00,46.7,24.3,29.85,West,275,0.0,8.0,41,0.00,,---,0.00,VWS V14.01,2013-04-05 02:31:00,
2013-04-04 20:41:00,44.6,22.4,29.87,West,275,3.0,6.0,41,0.00,,---,0.00,VWS V14.01,2013-04-05 02:41:00,
2013-04-04 21:01:00,47.2,21.0,29.85,West,280,12.0,12.0,35,0.00,,---,0.00,VWS V14.01,2013-04-05 03:01:00,
2013-04-04 21:11:00,48.7,21.6,29.82,West,281,0.0,13.0,34,0.00,,---,0.00,VWS V14.01,2013-04-05 03:11:00,
2013-04-04 21:41:00,44.2,22.0,29.88,West,281,0.0,0.0,41,0.00,,---,0.00,VWS V14.01,2013-04-05 03:41:00,
2013-04-04 22:01:00,40.9,25.5,29.89,West,281,4.0,6.0,54,0.00,,---,0.00,VWS V14.01,2013-04-05 04:01:00,
2013-04-04 22:11:00,41.1,24.8,29.88,West,281,1.0,7.0,52,0.00,,---,0.00,VWS V14.01,2013-04-05 04:11:00,
2013-04-04 22:31:00,41.5,23.8,29.88,West,281,0.0,0.0,49,0.00,,---,0.00,VWS V14.01,2013-04-05 04:31:00,
2013-04-04 22:41:00,41.5,23.3,29.87,West,281,0.0,0.0,48,0.00,,---,0.00,VWS V14.01,2013-04-05 04:41:00,
2013-04-04 22:51:00,41.9,23.7,29.86,West,281,0.0,0.0,48,0.00,,---,0.00,VWS V14.01,2013-04-05 04:51:00,
2013-04-04 23:01:00,41.7,23.5,29.86,West,281,0.0,0.0,48,0.00,,---,0.00,VWS V14.01,2013-04-05 05:01:00,
2013-04-04 23:11:00,41.0,24.3,29.83,West,281,0.0,0.0,51,0.00,,---,0.00,VWS V14.01,2013-04-05 05:11:00,
2013-04-04 23:31:00,40.6,23.9,29.83,West,281,0.0,0.0,51,0.00,,---,0.00,VWS V14.01,2013-04-05 05:31:00,
2013-04-04 23:41:00,40.2,24.0,29.83,West,281,0.0,0.0,52,0.00,,---,0.00,VWS V14.01,2013-04-05 05:41:00,
2013-04-04 23:51:00,40.0,24.7,29.83,West,281,0.0,0.0,54,0.00,,---,0.00,VWS V14.01,2013-04-05 05:51:00,